F4GQK-13 Weather Reports


time (UTC)temp
F
wind
direction
speed
knots
gust
knots
rain 1hr
in
rain 24hr
in
rain mn
in
humidity
%
barometer
mb
20260502161005 75 192 6.1 8.7 0.00 0.00 0.00 54 1015.0
20260502160504 75 231 4.3 8.7 0.00 0.00 0.00 54 1015.1
20260502152005 78 217 3.5 5.2 0.00 0.00 0.00 45 1015.3
20260502151505 78 218 1.7 6.1 0.00 0.00 0.00 42 1015.4
20260502151005 78 165 3.5 7.8 0.00 0.00 0.00 41 1015.3
20260502150505 79 176 7.0 9.6 0.00 0.00 0.00 41 1015.5
20260502130505 77 129 5.2 13.0 0.00 0.00 0.00 50 1016.9
20260502123506 78 129 1.7 9.6 0.00 0.00 0.00 53 1017.4
20260502123004 78 117 8.7 12.2 0.00 0.00 0.00 53 1017.3
20260502122505 78 184 3.5 6.1 0.00 0.00 0.00 54 1017.4
20260502122005 78 156 7.0 8.7 0.00 0.00 0.00 54 1017.6
20260502121505 79 116 7.0 9.6 0.00 0.00 0.00 54 1017.5
20260502121003 79 122 3.5 7.8 0.00 0.00 0.00 55 1017.5
20260502120505 78 151 0.9 6.1 0.00 0.00 0.00 57 1017.8
20260502115504 76 127 3.5 9.6 0.00 0.00 0.00 58 1017.9
20260502115005 76 218 5.2 9.6 0.00 0.00 0.00 57 1017.8
20260502114505 76 143 6.1 11.3 0.00 0.00 0.00 56 1017.7
20260502114005 76 104 7.8 12.2 0.00 0.00 0.00 56 1017.8
20260502113504 76 76 6.1 12.2 0.00 0.00 0.00 60 1018.2
20260502113005 76 134 3.5 11.3 0.00 0.00 0.00 61 1018.1
20260502112504 76 109 4.3 7.0 0.00 0.00 0.00 61 1018.1
20260502112005 76 137 2.6 9.6 0.00 0.00 0.00 61 1018.1
20260502111505 76 120 7.8 11.3 0.00 0.00 0.00 62 1018.1
20260502111005 75 52 2.6 3.5 0.00 0.00 0.00 66 1018.2
20260502110505 75 139 5.2 9.6 0.00 0.00 0.00 65 1018.2
20260502110005 76 126 2.6 3.5 0.00 0.00 0.00 64 1018.5
20260502105505 75 143 7.0 8.7 0.00 0.00 0.00 64 1018.6
20260502105005 76 146 1.7 7.8 0.00 0.00 0.00 64 1018.4
20260502104004 75 118 4.3 6.1 0.00 0.00 0.00 68 1018.5
20260502103504 74 149 1.7 3.5 0.00 0.00 0.00 72 1018.7
20260502103005 75 168 3.5 7.8 0.00 0.00 0.00 67 1018.7
20260502102505 74 139 1.7 7.8 0.00 0.00 0.00 69 1018.8
20260502102004 73 131 1.7 3.5 0.00 0.00 0.00 70 1018.8
20260502101504 74 180 3.5 5.2 0.00 0.00 0.00 68 1018.7
20260502101004 74 259 2.6 5.2 0.00 0.00 0.00 68 1018.9
20260502100505 73 99 0.9 7.0 0.00 0.00 0.00 68 1019.1
20260502091505 71 149 0.9 2.6 0.00 0.00 0.00 76 1019.5
20260502091005 70 121 2.6 3.5 0.00 0.00 0.00 77 1019.6
20260502090505 70 190 0.9 6.1 0.00 0.00 0.00 76 1019.7
20260502071504 60 126 3.5 3.5 0.00 0.00 0.00 95 1020.2
20260502071005 60 125 0.9 1.7 0.00 0.00 0.00 96 1020.3
20260502070504 59 122 0.9 1.7 0.00 0.00 0.00 96 1020.0
20260502070004 59 98 0.0 1.7 0.00 0.00 0.00 97 1020.0
20260502065504 59 89 0.0 0.9 0.00 0.00 0.00 97 1020.2
20260502065005 58 119 0.0 0.9 0.00 0.00 0.00 97 1020.2
20260502064504 58 131 0.9 1.7 0.00 0.00 0.00 97 1020.3
20260502064005 58 124 0.9 1.7 0.00 0.00 0.00 97 1020.1
20260502063505 58 117 0.0 0.9 0.00 0.00 0.00 98 1020.3
20260502063005 58 120 0.0 0.9 0.00 0.00 0.00 98 1020.2
20260502062505 57 120 0.9 1.7 0.00 0.00 0.00 98 1020.2
20260502062005 57 118 0.9 1.7 0.00 0.00 0.00 98 1020.1
20260502061505 57 84 0.0 0.9 0.00 0.00 0.00 98 1020.2
20260502061005 57 129 0.0 0.9 0.00 0.00 0.00 98 1020.3
20260502060505 57 129 0.0 0.9 0.00 0.00 0.00 98 1020.2
20260502060005 57 129 0.0 0.9 0.00 0.00 0.00 98 1020.2
20260502055505 56 129 0.0 0.0 0.00 0.00 0.00 98 1020.3
20260502055005 56 129 0.0 0.9 0.00 0.00 0.00 98 1020.2
20260502054504 56 129 0.0 0.9 0.00 0.00 0.00 98 1020.5
20260502054005 56 129 0.0 0.0 0.00 0.00 0.00 98 1020.3
20260502053505 55 129 0.0 0.9 0.00 0.00 0.00 98 1020.3
20260502053004 55 129 0.9 0.9 0.00 0.00 0.00 98 1020.2
20260502052505 54 129 0.0 0.0 0.00 0.00 0.00 98 1020.1
20260502052005 54 129 0.0 0.9 0.00 0.00 0.00 98 1020.3
20260502051505 54 129 0.0 0.0 0.00 0.00 0.00 98 1020.4
20260502051005 54 129 0.0 0.9 0.00 0.00 0.00 98 1020.3
20260502050505 54 125 0.9 1.7 0.00 0.00 0.00 98 1020.4
20260502050005 53 128 0.9 1.7 0.00 0.00 0.00 98 1020.4
20260502045504 53 133 0.9 0.9 0.00 0.00 0.00 98 1020.2
20260502045004 53 133 0.0 0.0 0.00 0.00 0.00 98 1020.3
20260502044505 53 133 0.0 1.7 0.00 0.00 0.00 98 1020.2
20260502044004 53 127 1.7 1.7 0.00 0.00 0.00 98 1020.3
20260502043504 53 125 0.0 0.0 0.00 0.00 0.00 98 1020.1
20260502043003 53 125 0.0 0.0 0.00 0.00 0.00 98 1020.3
20260502042504 53 125 0.0 0.0 0.00 0.00 0.00 97 1020.2
20260502042004 53 126 0.0 0.0 0.00 0.00 0.00 97 1020.5
20260502041504 54 126 0.9 0.9 0.00 0.00 0.00 97 1020.3
20260502041005 54 125 0.0 0.0 0.00 0.00 0.00 97 1020.3
20260502040505 54 125 0.0 0.9 0.00 0.00 0.00 98 1020.5
20260502040004 54 127 0.9 1.7 0.00 0.00 0.00 97 1020.4
20260502035504 53 130 0.9 1.7 0.00 0.00 0.00 97 1020.5
20260502035004 53 120 0.0 0.0 0.00 0.00 0.00 97 1020.5
20260502034504 53 120 0.0 0.0 0.00 0.00 0.00 97 1020.5
20260502034004 53 120 0.0 0.0 0.00 0.00 0.00 97 1020.5
20260502033504 53 120 0.0 0.0 0.00 0.00 0.00 97 1020.5
20260502033005 53 120 0.0 0.9 0.00 0.00 0.00 97 1020.4
20260502032505 53 120 0.0 0.0 0.00 0.00 0.00 97 1020.4
20260502032005 53 121 0.0 0.9 0.00 0.00 0.00 97 1020.7
20260502031505 53 120 0.0 0.9 0.00 0.00 0.00 97 1020.5
20260502031005 53 119 0.0 0.0 0.00 0.00 0.00 97 1020.6
20260502030504 54 119 0.0 0.9 0.00 0.00 0.00 97 1020.9
20260502030004 54 120 0.9 0.9 0.00 0.00 0.00 97 1020.8
20260502025504 54 120 0.0 0.9 0.00 0.00 0.00 97 1020.6
20260502025004 53 119 0.9 1.7 0.00 0.00 0.00 97 1020.9
20260502024504 53 130 0.9 1.7 0.00 0.00 0.00 97 1020.8
20260502024005 53 132 0.0 0.0 0.00 0.00 0.00 97 1020.8
20260502023505 53 132 0.0 0.9 0.00 0.00 0.00 97 1020.8
20260502023005 53 133 0.0 0.0 0.00 0.00 0.00 97 1020.8
20260502022505 53 133 0.0 0.0 0.00 0.00 0.00 97 1020.9
20260502022005 53 132 0.0 0.0 0.00 0.00 0.00 96 1021.0
20260502021505 54 132 0.0 0.0 0.00 0.00 0.00 97 1021.0
20260502021005 54 132 0.0 0.0 0.00 0.00 0.00 97 1020.9
20260502020505 54 132 0.9 1.7 0.00 0.00 0.00 96 1021.0
20260502020005 54 249 0.0 0.9 0.00 0.00 0.00 96 1021.0
20260502015505 54 107 0.0 0.9 0.00 0.00 0.00 96 1021.1
20260502015005 54 105 0.0 0.9 0.00 0.00 0.00 96 1020.9
20260502014505 54 104 0.0 0.0 0.00 0.00 0.00 96 1020.9
20260502014005 54 105 0.0 0.0 0.00 0.00 0.00 96 1021.0
20260502013504 54 105 0.0 0.9 0.00 0.00 0.00 96 1021.0
20260502013005 54 104 0.0 0.9 0.00 0.00 0.00 96 1021.0
20260502012504 54 104 0.0 0.0 0.00 0.00 0.00 96 1020.9
20260502012005 55 104 0.0 0.0 0.00 0.00 0.00 96 1021.1
20260502011505 55 104 0.0 0.0 0.00 0.00 0.00 96 1021.2
20260502011004 55 104 0.0 0.9 0.00 0.00 0.00 96 1021.1
20260502010505 55 105 0.0 0.9 0.00 0.00 0.00 95 1021.1
20260502010004 55 104 0.0 0.0 0.00 0.00 0.00 95 1021.1
20260502005504 55 104 0.0 0.0 0.00 0.00 0.00 95 1021.1
20260502005005 55 104 0.9 0.9 0.00 0.00 0.00 95 1021.3
20260502004504 55 79 0.9 1.7 0.00 0.00 0.00 95 1021.3
20260502004005 55 87 0.0 0.9 0.00 0.00 0.00 95 1021.1
20260502003505 56 88 0.0 0.0 0.00 0.00 0.00 95 1021.4
20260502003005 55 87 0.0 0.0 0.00 0.00 0.00 95 1021.5
20260502002505 56 89 0.0 0.0 0.00 0.00 0.00 95 1021.5
20260502002005 56 100 0.0 0.9 0.00 0.00 0.00 95 1021.3
20260502001504 56 100 0.0 0.9 0.00 0.00 0.00 94 1021.3
20260502001005 56 143 0.0 0.9 0.00 0.00 0.00 94 1021.3
20260502000505 56 143 0.0 0.9 0.00 0.00 0.00 94 1021.5
20260502000004 56 143 0.0 0.0 0.00 0.00 0.00 94 1021.3
20260501235505 56 143 0.0 0.0 0.00 0.00 0.00 94 1021.4
20260501235005 57 143 0.0 0.0 0.00 0.00 0.00 94 1021.6
20260501234504 57 143 0.0 0.0 0.00 0.00 0.00 94 1021.5
20260501234005 58 143 0.0 0.0 0.00 0.00 0.00 94 1021.5
20260501233505 58 143 0.0 0.0 0.00 0.00 0.00 94 1021.6
20260501233005 58 143 0.0 0.0 0.00 0.00 0.00 94 1021.8
20260501232504 58 144 0.0 0.0 0.00 0.00 0.00 94 1021.7
20260501232004 58 131 0.0 0.0 0.00 0.00 0.00 94 1021.6
20260501231505 58 131 0.0 1.7 0.00 0.00 0.00 94 1021.6
20260501231005 58 120 1.7 3.5 0.00 0.00 0.00 94 1021.7
20260501230504 58 123 1.7 2.6 0.00 0.00 0.00 94 1021.5
20260501230005 58 144 0.9 1.7 0.00 0.00 0.00 94 1021.8
20260501225505 58 118 0.9 1.7 0.05 0.00 0.00 94 1021.9
20260501225005 58 97 0.0 0.9 0.05 0.00 0.00 93 1021.8
20260501224505 59 97 0.0 0.9 0.05 0.00 0.00 93 1021.7
20260501224005 59 97 0.0 0.9 0.05 0.00 0.00 93 1021.7
20260501223504 59 97 0.0 0.0 0.05 0.00 0.00 93 1021.6
20260501223005 60 98 0.0 0.0 0.05 0.00 0.00 93 1021.6
20260501222505 60 98 0.0 0.0 0.05 0.00 0.00 92 1021.7
20260501222005 60 98 0.0 0.0 0.05 0.00 0.00 92 1021.6
20260501221505 60 129 0.0 0.9 0.05 0.00 0.00 92 1021.7
20260501221004 60 130 0.0 0.9 0.05 0.00 0.00 92 1021.5
20260501220504 60 123 0.9 0.9 0.05 0.00 0.00 92 1021.5
20260501220005 60 123 0.0 0.9 0.00 0.00 0.05 92 1021.4
20260501215505 60 106 0.0 3.5 0.00 0.00 0.05 92 1021.4
20260501215005 61 125 3.5 5.2 0.00 0.00 0.05 91 1021.9
20260501214505 61 123 0.9 0.9 0.00 0.00 0.05 91 1021.7
20260501214005 61 101 3.5 3.5 0.00 0.00 0.05 91 1021.8
20260501213505 61 105 1.7 5.2 0.00 0.00 0.05 91 1021.7
20260501213005 61 111 3.5 3.5 0.00 0.00 0.05 91 1021.7
20260501212503 62 121 1.7 3.5 0.00 0.00 0.05 90 1021.8
20260501212005 62 95 0.0 5.2 0.00 0.00 0.05 90 1021.8
20260501211505 62 131 3.5 5.2 0.00 0.00 0.05 89 1021.9
20260501211004 62 108 1.7 6.1 0.00 0.00 0.05 89 1022.0
20260501210505 63 92 2.6 7.8 0.00 0.00 0.05 87 1022.1
20260501210005 63 116 3.5 8.7 0.00 0.00 0.05 86 1022.2
20260501205505 63 133 3.5 6.1 0.00 0.00 0.05 87 1022.0
20260501205005 63 111 5.2 7.0 0.00 0.00 0.05 87 1022.2
20260501204505 62 128 4.3 7.8 0.00 0.00 0.05 87 1022.0
20260501204005 62 118 2.6 3.5 0.00 0.00 0.05 87 1022.0
20260501203505 62 112 0.0 1.7 0.00 0.00 0.05 87 1022.1
20260501203005 62 130 2.6 3.5 0.00 0.00 0.05 87 1022.0
20260501202505 62 133 2.6 3.5 0.00 0.00 0.05 87 1021.9
20260501202005 62 96 1.7 2.6 0.00 0.00 0.05 87 1021.9
20260501201505 62 95 0.9 3.5 0.00 0.00 0.05 87 1021.9
20260501201005 62 92 0.0 0.9 0.00 0.00 0.05 87 1021.8
20260501200505 62 89 0.9 1.7 0.00 0.00 0.05 87 1021.8
20260501200005 62 124 1.7 2.6 0.00 0.00 0.05 87 1021.7
20260501195505 62 95 1.7 2.6 0.00 0.00 0.05 87 1021.6
20260501195004 62 72 0.9 1.7 0.00 0.00 0.05 87 1021.6
20260501194505 62 69 1.7 3.5 0.00 0.00 0.05 88 1021.7
20260501194005 62 91 0.0 0.9 0.00 0.00 0.05 89 1021.6
20260501193504 62 112 0.0 0.9 0.00 0.00 0.05 89 1021.6
20260501193006 62 97 1.7 1.7 0.00 0.00 0.05 90 1021.7
20260501192505 62 110 0.0 0.0 0.00 0.00 0.05 90 1021.6
20260501192005 62 108 1.7 5.2 0.00 0.00 0.05 91 1021.5
20260501191504 62 128 0.0 1.7 0.00 0.00 0.05 91 1021.4
20260501191005 62 126 0.9 1.7 0.00 0.00 0.05 90 1021.5
20260501190505 63 105 0.0 0.9 0.00 0.00 0.05 90 1021.3
20260501190004 63 75 0.0 0.9 0.00 0.00 0.05 90 1021.4
20260501185505 63 94 0.9 1.7 0.01 0.00 0.05 89 1021.3
20260501185005 63 294 0.0 0.0 0.01 0.00 0.05 89 1021.3
20260501184505 63 294 0.0 0.0 0.01 0.00 0.05 89 1021.2
20260501184005 63 275 1.7 2.6 0.01 0.00 0.05 89 1021.5
20260501183504 64 28 0.9 1.7 0.03 0.00 0.05 87 1021.4
20260501183006 64 28 0.9 1.7 0.03 0.00 0.05 87 1021.4
20260501182504 64 28 0.9 1.7 0.03 0.00 0.05 87 1021.4
20260501182005 64 28 0.9 1.7 0.03 0.00 0.05 87 1021.4
20260501181503 64 17 0.9 1.7 0.03 0.00 0.05 87 1021.5
20260501181004 64 283 2.6 5.2 0.03 0.00 0.05 86 1021.7
20260501180505 65 300 1.7 5.2 0.03 0.00 0.05 85 1021.4
20260501180003 65 295 0.9 0.9 0.03 0.00 0.05 82 1021.2
20260501175504 65 219 0.0 0.0 0.02 0.00 0.04 80 1021.3
20260501175005 65 273 0.0 1.7 0.02 0.00 0.04 79 1021.2
20260501174505 65 218 7.8 9.6 0.02 0.00 0.04 82 1021.1
20260501174005 65 242 1.7 7.8 0.02 0.00 0.04 83 1021.0
20260501173505 66 265 3.5 6.1 0.02 0.00 0.04 79 1021.0
20260501173005 67 128 1.7 2.6 0.02 0.00 0.04 73 1020.6
20260501172503 68 123 3.5 3.5 0.00 0.00 0.02 67 1020.5
20260501172005 68 110 3.5 7.0 0.00 0.00 0.02 68 1020.4
20260501171503 68 87 3.5 3.5 0.00 0.00 0.02 71 1020.5
20260501171005 67 118 2.6 7.0 0.00 0.00 0.02 71 1020.6
20260501170505 68 132 3.5 12.2 0.00 0.00 0.02 73 1020.7
20260501170005 69 26 5.2 6.1 0.00 0.00 0.02 75 1020.6
20260501165505 70 144 7.0 13.0 0.00 0.00 0.02 76 1020.7
20260501165005 71 102 1.7 2.6 0.01 0.00 0.02 80 1020.4
20260501164504 71 114 0.9 1.7 0.02 0.00 0.02 82 1020.3
20260501164005 73 78 0.0 1.7 0.02 0.00 0.02 82 1020.5
20260501163504 73 84 0.9 1.7 0.02 0.00 0.02 80 1020.3
20260501163003 74 43 0.9 1.7 0.02 0.00 0.02 76 1020.2
20260501162505 73 40 0.0 0.9 0.02 0.00 0.02 74 1020.5
20260501162005 73 40 0.0 0.9 0.02 0.00 0.02 76 1020.7
20260501161504 73 69 0.9 1.7 0.02 0.00 0.02 75 1020.6